Flag for Germany Weather past 2 weeks in Jülich, North Rhine-Westphalia, Germany

Now
63 °F

Broken clouds.


Feels Like: 63 °F
Forecast: 50 / 66 °F
Wind: 10 mph from Northwest

Location: Geilenkirchen Airport

Current Time: Sep 1, 2015 at 2:20:19 PM

Latest Report: Sep 1, 2015 at 1:50 PM


Visibility: N/A

Pressure: 29.95 "Hg

Humidity: 88%

Dew point: 59 °F

Location of JülichLocation

Historic Weather in Jülich — Graph

°F

Jülich temperature yesterday

Maximum temperature yesterday: 90 °F (at 3:50 PM)
Minimum temperature yesterday: 63 °F (at 6:50 AM)
Average temperature yesterday: 75 °F

Past Weeks' High & Low Weather Summary

 TemperatureHumidityPressure
High90 °F (Aug 31, 3:50 PM)100% (Aug 24, 4:50 AM)30.24 "Hg (Aug 24, 4:50 AM)
Low50 °F (Aug 20, 6:50 AM)33% (Aug 31, 3:50 PM)29.53 "Hg (Aug 24, 2:50 PM)
Average65 °F73%29.95 "Hg
* Reported Aug 17 12:50 PM — Sep 1 12:50 PM, Jülich, Weather by CustomWeather, © 2015

Note: Actual official high and low records may vary slightly from our data, if they occured in-between our weather recording intervals... More about our weather records

Advertising

Jülich weather history for previous 24 hours

 ConditionsComfort  
Time TempWeatherWind HumidityBarometerVisibility
12:50 PM
Tue, Sep 1
61 °FSprinkles. Broken clouds.7 mph88%29.92 "HgN/A
11:50 AM61 °FLight rain. Broken clouds.7 mph94%29.89 "Hg6 mi
10:50 AM59 °FLight rain. Broken clouds.7 mph94%29.86 "Hg5 mi
9:50 AM59 °FLight rain. Partly sunny.8 mph94%29.86 "Hg4 mi
8:50 AM59 °FLight rain. Partly sunny.6 mph100%29.86 "Hg3 mi
7:50 AM59 °FLight rain. Partly sunny.8 mph100%29.86 "Hg3 mi
6:50 AM61 °FPartly cloudy.9 mph94%29.86 "Hg5 mi
4:50 AM63 °FPassing clouds.12 mph88%29.86 "HgN/A
3:50 AM64 °FPassing clouds.12 mph83%29.86 "HgN/A
2:50 AM64 °FPassing clouds.10 mph83%29.86 "HgN/A
1:50 AM64 °FPassing clouds.14 mph88%29.86 "HgN/A
12:50 AM70 °FPartly cloudy.15 mph83%29.83 "HgN/A
11:50 PM
Mon, Aug 31
70 °FPassing clouds.12 mph83%29.83 "HgN/A
10:50 PM70 °FPassing clouds.13 mph83%29.83 "HgN/A
9:50 PM70 °FClear.7 mph83%29.83 "Hg10 mi
8:50 PM70 °FSunny.6 mph83%29.83 "Hg10 mi
7:50 PM70 °FPartly sunny.14 mph83%29.83 "HgN/A
6:50 PM75 °FSunny.22 mph61%29.83 "Hg10 mi
5:50 PM86 °FSunny.16 mph46%29.77 "Hg10 mi
4:50 PM88 °FSunny.14 mph38%29.77 "Hg10 mi
3:50 PM90 °FSunny.12 mph33%29.77 "Hg10 mi
2:50 PM88 °FSunny.12 mph40%29.77 "Hg10 mi
Weather by CustomWeather, © 2015

See weather overviewHow to use our weather pages